Location: Plainartige
(45.6866°N, 1.7993°E)
Time: 01:14:38
(UTC+00:00)

BEESAT - Pass Details

Date: 01 July 2022
Orbit: 700 x 706 km, 98.6° (Epoch: 16 August)

Event Time Altitude Azimuth Distance (km) Brightness Sun altitude
Rises 21:52:38 0° 358° (N) 3,106 ? -15.7°
Reaches altitude 10° 21:55:41 10° 338° (NNW) 2,183 ? -16.0°
Maximum altitude 21:58:31 16° 301° (WNW) 1,807 ? -16.2°
Drops below altitude 10° 22:01:21 10° 264° (W) 2,177 ? -16.4°
Sets 22:04:24 0° 243° (WSW) 3,092 ? -16.7°
